LUCAS (JDRS-1) (47202 NORAD) Tracking and Keplerian Element Data

This shows tracking and keplerian element data for the satellite.

Feedback or suggestion? Click here.




ElementValue
Catalog47202
NameLUCAS (JDRS-1)
Epoch Orbit104
Epoch Day62.84007782
Epoch Year2021
RAAN148.7529
Inclination0.0171
Eccentricity0.0002317
Argument of Perigee203.7945
Mean Anonmoly202.469
Mean Motion1.00272774
Decay Rate-2.46E-06
L11 47202U 20089A 21062.84007782 -.00000246 00000-0 00000-0 0 9994
L22 47202 0.0171 148.7529 0002317 203.7945 202.4690 1.00272774 1043

Live tracking and technical data element details for LUCAS (JDRS-1) (NORAD 47202). LUCAS (JDRS-1) can be tracked NOW for your location showing map with azimuth and elevation plus other details from your city location.

Track the satellite on the map from your city or location and see movement details for azimuth, elevation, latitude, longitude, range, height, and movement on the map or in text.







IsCatalogInMostPopularTable: catalog: 47202, numindb: 38
Update: records affected: 1



GetName: 47202 LUCAS (JDRS-1)

Hit Count: updated at: Fri, 05 Mar 2021 07:44:58 GMT